METAR EVRA 121120Z 14010KT 9999 BKN009 BKN037 05/04 Q1015 R18/190095 BECMG BKN012 BKN035 =

Controllers Online

PositionControllerOnline
No controllers currently online

Booked ATC Today

No ATC booked yet.
Be the first for today!
* Times are UTC

The time is now

UTC: 

Local: 

Latvia vACC on twitter